Location: Berkeley
(37.8716°N, 122.2727°W)
Time: 14:49:53

Tiangong 1 - Visible Passes

Search period start: 24 March 2018 00:00
Search period end: 03 April 2018 00:00
Orbit: 205 x 227 km, 42.7° (Epoch: 24 March)

Date Brightness Start Highest point End Pass type
(mag) Time Alt. Az. Time Alt. Az. Time Alt. Az.
30 Mar -0.3 06:19:18 14° WSW 06:20:50 78° SSE 06:22:44 10° ENE visible
31 Mar -0.4 05:53:38 57° WSW 05:53:55 84° SSE 05:55:48 10° ENE visible
01 Apr 2.3 05:26:58 24° ENE 05:26:58 24° ENE 05:27:55 10° ENE visible
